DateTimeUTC,F1_A11,F1_S11,BsB_S11,BsG_S11,BsR_S11,BbsB_S11,BbsG_S11,BbsR_S11,BaB_A11,BaG_A11,BaR_A11,Tu_S11,T_S11,Uu_S11,U_S11,P_S11,T1_A11
2021-10-24T17:00:00Z,00000200,21000000,,,,,,,0000.24,0000.29,-000.12,19.8,26.6,,00.0,0624.5,31.2
2021-10-24T17:01:00Z,00000200,21000000,,,,,,,-000.37,-000.36,-000.07,19.7,26.6,,00.0,0624.4,31.2
2021-10-24T17:02:00Z,00000200,21000000,,,,,,,0000.05,-000.06,-000.12,19.7,26.6,,00.0,0624.4,31.2
2021-10-24T17:03:00Z,00000200,61000000,,,,,,,0000.87,0000.37,0000.03,19.7,26.6,,00.0,0624.4,31.2
2021-10-24T17:04:00Z,00000200,41000000,0000.53,0000.39,0000.05,-000.45,0000.07,-000.16,0000.15,0000.36,0000.54,19.6,26.3,,00.0,0625.1,31.2
2021-10-24T17:05:00Z,00000200,01000000,0000.50,0000.32,0000.31,0000.22,0000.09,0000.29,0000.26,-000.11,0000.25,19.6,26.2,,00.0,0625.1,31.2
2021-10-24T17:06:00Z,00000200,01000000,0000.11,0000.10,-000.07,0000.51,-000.06,-000.48,-000.14,0000.23,0000.46,19.6,26.2,,00.0,0625.1,31.2
2021-10-24T17:07:00Z,00000200,01000000,0000.39,0000.24,0000.36,0001.01,0000.11,0000.15,0000.84,0000.97,0000.50,19.7,26.2,,00.0,0625.1,31.2
2021-10-24T17:08:00Z,00000200,01000000,-000.53,0000.21,0000.39,0000.30,0000.06,0000.15,0000.44,0000.24,0000.54,19.7,26.3,,00.0,0625.2,31.2
2021-10-24T17:09:00Z,00000200,01000000,-000.37,0000.42,0000.10,0000.14,-000.13,-000.57,0000.17,0000.16,-000.15,19.8,26.3,,00.0,0625.2,31.2
2021-10-24T17:10:00Z,00000200,01000000,0000.09,0000.21,0000.33,-000.17,0000.11,-000.13,0000.46,0000.57,0000.64,19.9,26.3,,00.0,0625.1,31.2
2021-10-24T17:11:00Z,00000200,01000000,0000.13,0000.13,0000.02,-000.02,0000.14,-000.17,0000.43,0000.52,0000.38,19.9,26.3,,00.0,0625.1,31.2
2021-10-24T17:12:00Z,00000200,01000000,0000.15,0000.34,0000.48,0000.05,-000.12,0000.00,0000.18,0000.10,0000.08,20.0,26.4,,00.0,0625.1,31.2
2021-10-24T17:13:00Z,00000200,01000000,-000.11,-000.07,-000.02,-000.07,-000.09,0000.21,0000.48,0000.46,0000.63,20.1,26.4,,00.0,0625.1,31.2
2021-10-24T17:14:00Z,00000200,01000000,0000.91,-000.05,0000.60,0000.06,0000.15,0000.11,0000.27,0000.42,0000.16,20.1,26.4,,00.0,0625.1,31.2
2021-10-24T17:15:00Z,00000200,01000000,-000.11,0000.38,0000.03,-000.04,0000.29,-000.23,0000.35,0000.59,0000.72,20.2,26.5,,00.0,0625.1,31.2
2021-10-24T17:16:00Z,00000200,01000000,0000.35,0000.37,0000.04,-000.11,-000.26,0000.16,0000.22,0000.59,0000.41,20.2,26.5,,00.0,0625.0,31.2
2021-10-24T17:17:00Z,00000200,01000000,0000.60,0000.07,0000.08,0000.22,-000.34,0000.06,0000.78,0000.09,-000.02,20.3,26.5,,00.0,0625.0,31.3
2021-10-24T17:18:00Z,00000200,01000000,0000.34,0000.09,0000.28,0000.14,0000.14,0000.07,0000.25,0000.49,0000.33,20.2,26.5,,00.0,0625.0,31.2
2021-10-24T17:19:00Z,00000200,01000000,-000.01,-000.00,0000.12,-000.02,-000.19,0000.23,0000.46,0000.79,0000.91,20.2,26.5,,00.0,0625.0,31.2
2021-10-24T17:20:00Z,00000200,01000000,0000.13,0000.23,0000.32,0000.31,-000.14,0000.07,0000.19,-000.20,0000.12,20.2,26.5,,00.0,0624.9,31.2
2021-10-24T17:21:00Z,00000200,01000000,0000.51,-000.03,0000.10,0000.30,-000.08,-000.03,0000.30,0000.08,0000.21,20.2,26.5,,00.0,0624.9,31.2
2021-10-24T17:22:00Z,00000200,01000000,0000.25,0000.47,0000.39,0000.26,-000.18,0000.45,0000.85,0000.77,0000.64,20.2,26.5,,00.0,0625.0,31.2
2021-10-24T17:23:00Z,00000200,01000000,-000.36,-000.07,0000.16,-000.01,-000.16,0000.04,0000.45,0000.68,0000.84,20.2,26.5,,00.0,0625.1,31.2
2021-10-24T17:24:00Z,00000200,01000000,0000.87,-000.04,0000.13,0000.06,-000.11,-000.10,0000.63,0000.50,0000.37,20.3,26.6,,00.0,0625.0,31.2
2021-10-24T17:25:00Z,00000200,01000000,-001.08,-000.10,0000.02,0000.37,0000.19,0000.11,0000.18,0000.19,0000.11,20.3,26.6,,00.0,0624.9,31.2
2021-10-24T17:26:00Z,00000200,01000000,0000.07,0000.21,0000.08,0000.74,-000.08,0000.03,0000.09,0000.11,0000.34,20.4,26.6,,00.0,0625.0,31.2
2021-10-24T17:27:00Z,00000200,01000000,0000.49,-000.13,-000.08,-000.25,-000.03,0000.18,0000.14,0000.23,0000.17,20.4,26.7,,00.0,0624.9,31.3
2021-10-24T17:28:00Z,00000200,01000000,0000.62,0000.11,0000.09,0000.29,0000.10,0000.26,0000.25,0000.39,0000.35,20.5,26.7,,00.0,0624.9,31.3
2021-10-24T17:29:00Z,00000200,01000000,-000.04,0000.34,-000.02,-000.09,0000.22,0000.09,0000.79,0000.36,0000.50,20.5,26.7,,00.0,0624.9,31.3
2021-10-24T17:30:00Z,00000200,01000000,0000.10,0000.33,0000.12,0000.07,0000.10,-000.04,-000.20,0000.45,0000.19,20.5,26.7,,00.0,0624.9,31.3
2021-10-24T17:31:00Z,00000200,01000000,0000.43,-000.06,-000.10,0000.85,-000.02,0000.07,0000.40,-000.13,0000.47,20.5,26.7,,00.0,0624.9,31.3
2021-10-24T17:32:00Z,00000200,01000000,0000.73,0000.23,0000.05,0000.49,0000.28,-000.20,0000.41,0000.26,-000.23,20.4,26.7,,00.0,0624.9,31.2
2021-10-24T17:33:00Z,00000200,01000000,0000.82,0000.17,0000.12,0000.11,-000.11,0000.08,-000.22,0000.13,0000.51,20.4,26.7,,00.0,0625.0,31.2
2021-10-24T17:34:00Z,00000200,01000000,-000.07,0000.20,-000.09,0000.60,-000.13,-000.08,0000.63,0000.33,-000.00,20.3,26.6,,00.0,0625.1,31.2
2021-10-24T17:35:00Z,00000200,01000000,-000.06,0000.07,0000.60,0000.38,-000.17,0000.12,0000.03,0000.33,0000.17,20.2,26.6,,00.0,0625.1,31.2
2021-10-24T17:36:00Z,00000200,01000000,0000.22,0000.04,0000.42,0000.08,-000.26,0000.25,0000.25,-000.03,0000.11,20.2,26.5,,00.0,0625.1,31.2
2021-10-24T17:37:00Z,00000200,01000000,0000.53,0000.06,0000.36,-000.16,-000.06,0000.11,-000.14,0000.43,0000.34,20.3,26.6,,00.0,0625.0,31.2
2021-10-24T17:38:00Z,00000200,01000000,-000.68,0000.45,0000.27,0000.16,-000.20,0000.35,0000.39,0000.66,0000.16,20.3,26.6,,00.0,0625.0,31.2
2021-10-24T17:39:00Z,00000200,01000000,0000.00,-000.16,0000.30,0000.15,0000.24,-000.30,0000.24,-000.24,0000.33,20.4,26.7,,00.0,0624.9,31.2
2021-10-24T17:40:00Z,00000200,01000000,-000.17,-000.02,-000.32,0000.10,-000.07,-000.39,0000.17,0000.01,0000.18,20.4,26.7,,00.0,0625.0,31.2
2021-10-24T17:41:00Z,00000200,01000000,0000.16,0000.13,0000.01,0000.70,-000.01,-000.30,0000.61,0000.39,0000.08,20.5,26.7,,00.0,0625.0,31.2
2021-10-24T17:42:00Z,00000200,01000000,-000.00,0000.22,0000.05,0000.19,-000.18,-000.09,-000.38,0000.14,0000.18,20.5,26.8,,00.0,0625.0,31.2
2021-10-24T17:43:00Z,00000200,01000000,0000.50,-000.44,0000.21,0000.33,-000.19,-000.01,0000.47,0000.14,-000.08,20.5,26.8,,00.0,0625.0,31.3
2021-10-24T17:44:00Z,00000200,01000000,0000.72,-000.10,-000.06,-000.01,-000.14,0000.04,0000.00,-000.14,0000.62,20.6,26.8,,00.0,0625.1,31.3
2021-10-24T17:45:00Z,00000200,01000000,0000.36,0000.15,-000.00,-000.16,-000.28,-000.06,0000.38,0000.75,0000.16,20.6,26.9,,00.0,0625.0,31.3
2021-10-24T17:46:00Z,00000200,01000000,0000.00,0000.11,0000.22,0000.49,0000.06,0000.13,0000.18,0000.35,0000.40,20.6,26.9,,00.0,0625.1,31.3
2021-10-24T17:47:00Z,00000200,01000000,0000.94,-000.10,-000.05,0000.02,0000.17,-000.25,-000.08,0000.14,-000.18,20.6,26.9,,00.0,0625.2,31.3
2021-10-24T17:48:00Z,00000200,01000000,0000.65,0000.17,0000.09,-000.23,-000.04,0000.05,0000.54,0000.34,0000.47,20.5,26.8,,00.0,0625.1,31.3
2021-10-24T17:49:00Z,00000200,01000000,0001.12,-000.14,0000.10,0000.08,-000.37,0000.01,0000.43,-000.04,0000.14,20.4,26.8,,00.0,0625.0,31.2
2021-10-24T17:50:00Z,00000200,01000000,0000.53,0000.15,0000.33,0000.57,-000.19,0000.29,-000.20,0000.02,-000.06,20.4,26.7,,00.0,0625.1,31.2
2021-10-24T17:51:00Z,00000200,01000000,0000.64,0000.14,-000.07,-000.17,-000.02,0000.09,0000.16,0000.28,0000.51,20.4,26.7,,00.0,0625.1,31.2
2021-10-24T17:52:00Z,00000200,01000000,0000.80,0000.21,-000.05,0000.07,-000.18,0000.02,-000.02,-000.37,0000.06,20.4,26.8,,00.0,0625.0,31.2
2021-10-24T17:53:00Z,00000200,01000000,0000.05,0000.19,-000.05,0000.49,0000.03,-000.30,0000.32,0000.61,0000.29,20.5,26.8,,00.0,0625.0,31.2
2021-10-24T17:54:00Z,00000200,01000000,0000.80,0000.24,0000.14,0000.23,-000.13,-000.03,0000.46,0000.16,-000.01,20.5,26.8,,00.0,0625.0,31.2
2021-10-24T17:55:00Z,00000200,01000000,-000.11,0000.28,-000.18,0000.31,-000.14,-000.11,-000.02,0000.12,-000.04,20.5,26.8,,00.0,0625.1,31.2
2021-10-24T17:56:00Z,00000200,01000000,-000.30,0000.12,-000.03,-000.04,-000.10,0000.02,-000.21,-000.06,-000.26,20.6,26.9,,00.0,0625.1,31.3
2021-10-24T17:57:00Z,00000200,41000000,,,,,,,0000.25,0000.82,0000.75,20.6,26.9,,00.0,0625.0,31.3
2021-10-24T17:58:00Z,00000200,61000000,,,,,,,0000.30,-000.45,-000.03,20.4,27.0,,00.0,0624.2,31.3
2021-10-24T17:59:00Z,00000200,21000000,,,,,,,0000.07,0000.25,0000.11,20.3,27.1,,00.0,0624.2,31.3
